Flag for Canada Weather past 2 weeks in Halton Hills, Ontario, Canada

Now
39 °F

Passing clouds.


Feels Like: 33 °F
Forecast: 37 / 54 °F
Wind: 9 mph from East

Location: Toronto Pearson International Airport

Current Time: Apr 19, 2015 at 7:31:56 AM

Latest Report: Apr 19, 2015 at 6:00 AM


Visibility: 15 mi

Pressure: 30.24 "Hg

Humidity: 65%

Dew point: 28 °F

Location of Halton HillsLocation

Historic Weather in Halton Hills — Graph

°F

Halton Hills temperature yesterday

Maximum temperature yesterday: 68 °F (at 11:00 AM)
Minimum temperature yesterday: 46 °F (at 6:00 AM)
Average temperature yesterday: 56 °F

Past Weeks' High & Low Weather Summary

 TemperatureHumidityPressure
High73 °F (Apr 13, 5:00 PM)100% (Apr 8, 5:00 PM)30.42 "Hg (Apr 8, 5:00 PM)
Low27 °F (Apr 5, 3:00 AM)19% (Apr 14, 3:00 PM)29.43 "Hg (Apr 10, 10:00 AM)
Average46 °F62%30.11 "Hg
* Reported Apr 4 6:00 AM — Apr 19 6:00 AM, Halton Hills, Weather by CustomWeather, © 2015

Note: Actual official high and low records may vary slightly from our data, if they occured in-between our weather recording intervals... More about our weather records

Advertising

Halton Hills weather history for previous 24 hours

 ConditionsComfort  
Time TempWeatherWind HumidityBarometerVisibility
6:00 AM
Sun, Apr 19
39 °FPassing clouds.9 mph65%30.24 "Hg15 mi
5:00 AM43 °FClear.10 mph57%30.24 "Hg15 mi
4:00 AM45 °FClear.13 mph49%30.22 "Hg15 mi
3:00 AM45 °FClear.7 mph49%30.22 "Hg15 mi
2:00 AM43 °FClear.7 mph53%30.22 "Hg15 mi
1:00 AM45 °FClear.9 mph53%30.21 "Hg15 mi
12:00 AM45 °FClear.10 mph57%30.21 "Hg15 mi
11:00 PM
Sat, Apr 18
46 °FClear.13 mph50%30.21 "Hg15 mi
10:00 PM50 °FClear.14 mph43%30.20 "Hg15 mi
9:00 PM52 °FPassing clouds.15 mph44%30.18 "Hg15 mi
8:00 PM54 °FPassing clouds.17 mph41%30.16 "Hg15 mi
7:00 PM59 °FPassing clouds.16 mph34%30.15 "Hg15 mi
6:00 PM61 °FPassing clouds.15 mph31%30.13 "Hg15 mi
5:00 PM63 °FPassing clouds.13 mph30%30.11 "Hg15 mi
4:00 PM63 °FPassing clouds.15 mph30%30.08 "Hg15 mi
3:00 PM63 °FPassing clouds.20 mph27%30.07 "Hg15 mi
2:00 PM63 °FPassing clouds.22 mph25%30.06 "Hg15 mi
1:00 PM61 °FPassing clouds.28 mph31%30.05 "Hg15 mi
12:00 PM63 °FPassing clouds.28 mph32%30.03 "Hg15 mi
11:00 AM68 °FSunny.23 mph35%29.98 "Hg15 mi
10:00 AM66 °FPassing clouds.25 mph40%29.96 "Hg15 mi
9:00 AM59 °FScattered clouds.16 mph59%29.96 "Hg15 mi
8:00 AM54 °FScattered clouds.7 mph72%29.96 "Hg15 mi
7:00 AM50 °FPassing clouds.3 mph71%29.96 "Hg15 mi
Weather by CustomWeather, © 2015

See weather overviewHow to use our weather pages